Home > Weather > Zarqa > Past weeks

Flag for Jordan Past Weather in Zarqa, Jordan — Yesterday and Last 2 Weeks

Now
91 °F

Haze.


Feels Like: 87 °F
Forecast: 65 / 96 °F
Wind: 7 mph from Northwest

Location: Amman Airport

Current Time: Jul 27, 2016 at 2:42:09 PM

Latest Report: Jul 27, 2016 at 2:00 PM


Visibility: 3 mi

Pressure: 29.86 "Hg (27.88 "Hg at 615m altitude)

Humidity: 11%

Dew Point: 30 °F

Location of ZarqaLocation

Past Weather in Zarqa — Graph

°F

Zarqa Temperature Yesterday

Maximum temperature yesterday: 91 °F (at 3:00 PM)
Minimum temperature yesterday: 73 °F (at 5:00 AM)
Average temperature yesterday: 82 °F

High & Low Weather Summary for the Past Weeks

 TemperatureHumidityPressure
High97 °F (Jul 15, 2:00 PM)100% (Jul 17, 2:00 AM)29.98 "Hg (Jul 17, 2:00 AM)
Low66 °F (Jul 23, 3:00 AM)9% (Jul 15, 3:00 PM)29.74 "Hg (Jul 19, 5:00 PM)
Average81 °F41%29.85 "Hg
* Reported Jul 12 1:00 PM — Jul 27 1:00 PM, Zarqa, Weather by CustomWeather, © 2016

Note: Actual official high and low records may vary slightly from our data, if they occured in-between our weather recording intervals... More about our weather records

Advertising

Zarqa Weather History for the Previous 24 Hours

Scroll right to see more
 ConditionsComfort  
Time TempWeatherWind HumidityBarometerVisibility
1:00 PM
Wed, Jul 27
88 °FHaze.9 mph16%29.86 "Hg3 mi
11:00 AM88 °FHaze.5 mph17%29.86 "Hg3 mi
10:00 AM86 °FHaze.5 mph18%29.86 "Hg3 mi
9:00 AM84 °FHaze.5 mph18%29.86 "Hg3 mi
8:00 AM79 °FHaze.5 mph23%29.86 "Hg3 mi
7:00 AM73 °FClear.No wind29%29.86 "Hg2 mi
6:00 AM72 °FHaze.No wind31%29.86 "Hg3 mi
5:00 AM77 °FHaze.No wind32%29.83 "Hg3 mi
4:00 AM77 °FHaze.No wind32%29.83 "Hg3 mi
3:00 AM77 °FHaze.No wind32%29.83 "Hg3 mi
2:00 AM79 °FHaze.No wind28%29.83 "Hg3 mi
1:00 AM79 °FHaze.7 mph26%29.83 "Hg3 mi
12:00 AM79 °FHaze.7 mph26%29.83 "Hg3 mi
11:00 PM
Tue, Jul 26
81 °FHaze.7 mph34%29.83 "Hg3 mi
10:00 PM81 °FHaze.9 mph37%29.83 "Hg3 mi
8:00 PM82 °FHaze.7 mph30%29.83 "Hg3 mi
7:00 PM86 °FHaze.14 mph31%29.83 "Hg3 mi
6:00 PM90 °FHaze.12 mph33%29.83 "Hg3 mi
4:00 PM91 °FHaze.12 mph30%29.83 "Hg3 mi
3:00 PM91 °FHaze.12 mph24%29.83 "Hg3 mi
2:00 PM90 °FHaze.14 mph22%29.83 "Hg3 mi
Weather by CustomWeather, © 2016

See weather overviewHow to use our weather pages